,,Stat6,,Stat2,,Stat8,,Stat9,,Stat10,,Wind1,,Wind1,
time,status,PA1M_AVG,status,PR1M_SUM,status,RH1M_AVG,status,SR1M_AVG,status,TA1M_AVG,status,W1dAve1m,status,W1sAve1m,
2003-11-23, 00:00:00,VALID,920.332,VALID,0,VALID,100,VALID,0.0169808,VALID,19.15,VALID,134,VALID,0.956676,
2003-11-23, 00:01:00,VALID,920.325,VALID,0,VALID,100,VALID,0,VALID,19.1403,VALID,134,VALID,0.809659,
2003-11-23, 00:02:00,VALID,920.311,VALID,0,VALID,100,VALID,0,VALID,19.144,VALID,132,VALID,0.733507,
2003-11-23, 00:03:00,VALID,920.301,VALID,0,VALID,100,VALID,0,VALID,19.1408,VALID,127,VALID,0.848028,
2003-11-23, 00:04:00,VALID,920.285,VALID,0,VALID,100,VALID,0,VALID,19.1279,VALID,119,VALID,0.83457,
2003-11-23, 00:05:00,VALID,920.268,VALID,0,VALID,100,VALID,0.0339617,VALID,19.1309,VALID,117,VALID,0.562318,
2003-11-23, 00:06:00,VALID,920.263,VALID,0,VALID,100,VALID,0,VALID,19.1085,VALID,110,VALID,0.69029,
2003-11-23, 00:07:00,VALID,920.258,VALID,0,VALID,100,VALID,0,VALID,19.1124,VALID,110,VALID,0.747093,
2003-11-23, 00:08:00,VALID,920.241,VALID,0,VALID,100,VALID,-0.0169808,VALID,19.1124,VALID,111,VALID,0.41806,
2003-11-23, 00:09:00,VALID,920.236,VALID,0,VALID,100,VALID,-0.0339617,VALID,19.1057,VALID,105,VALID,0.397294,
2003-11-23, 00:10:00,VALID,920.229,VALID,0,VALID,100,VALID,-0.0339617,VALID,19.1025,VALID,90,VALID,0.539258,
2003-11-23, 00:11:00,VALID,920.219,VALID,0,VALID,100,VALID,-0.0849042,VALID,19.1023,VALID,90,VALID,0.888281,
2003-11-23, 00:12:00,VALID,920.196,VALID,0,VALID,100,VALID,-0.0339617,VALID,19.1023,VALID,91,VALID,0.759337,
2003-11-23, 00:13:00,VALID,920.175,VALID,0,VALID,100,VALID,-0.0679233,VALID,19.1025,VALID,106,VALID,0.700076,
2003-11-23, 00:14:00,VALID,920.145,VALID,0,VALID,100,VALID,0,VALID,19.0958,VALID,116,VALID,0.971058,
2003-11-23, 00:15:00,VALID,920.142,VALID,0,VALID,100,VALID,-0.0339617,VALID,19.0956,VALID,123,VALID,1.125,
2003-11-23, 00:16:00,VALID,920.124,VALID,0,VALID,100,VALID,0,VALID,19.0988,VALID,109,VALID,1.21341,
2003-11-23, 00:17:00,VALID,920.104,VALID,0,VALID,100,VALID,-0.0169808,VALID,19.0986,VALID,103,VALID,0.994978,
2003-11-23, 00:18:00,VALID,920.094,VALID,0,VALID,100,VALID,-0.0169808,VALID,19.1087,VALID,103,VALID,0.954861,
2003-11-23, 00:19:00,VALID,920.084,VALID,0,VALID,100,VALID,-0.0169808,VALID,19.1085,VALID,99,VALID,0.813408,
2003-11-23, 00:20:00,VALID,920.075,VALID,0,VALID,100,VALID,-0.0339617,VALID,19.1286,VALID,96,VALID,0.886458,
2003-11-23, 00:21:00,VALID,920.071,VALID,0,VALID,100,VALID,0,VALID,19.1251,VALID,84,VALID,0.690407,
2003-11-23, 00:22:00,VALID,920.056,VALID,0,VALID,100,VALID,-0.0169808,VALID,19.1085,VALID,82,VALID,0.654552,
2003-11-23, 00:23:00,VALID,920.05,VALID,0,VALID,100,VALID,-0.0169808,VALID,19.1087,VALID,88,VALID,0.744978,
2003-11-23, 00:24:00,VALID,920.018,VALID,0,VALID,100,VALID,-0.0679233,VALID,19.1053,VALID,85,VALID,0.922852,
2003-11-23, 00:25:00,VALID,920.002,VALID,0,VALID,100,VALID,-0.0169808,VALID,19.1149,VALID,84,VALID,0.548549,
2003-11-23, 00:26:00,VALID,919.987,VALID,0,VALID,100,VALID,-0.0169808,VALID,19.1152,VALID,58,VALID,0.44931,
2003-11-23, 00:27:00,VALID,919.974,VALID,0,VALID,100,VALID,-0.0509425,VALID,19.1023,VALID,61,VALID,0.698742,
2003-11-23, 00:28:00,VALID,919.962,VALID,0,VALID,100,VALID,-0.0169808,VALID,19.0891,VALID,107,VALID,0.997396,
2003-11-23, 00:29:00,VALID,919.946,VALID,0,VALID,100,VALID,-0.0169808,VALID,19.0926,VALID,109,VALID,0.878049,
2003-11-23, 00:30:00,VALID,919.939,VALID,0,VALID,100,VALID,0,VALID,19.0958,VALID,58,VALID,0.459821,
2003-11-23, 00:31:00,VALID,919.928,VALID,0,VALID,100,VALID,-0.0339617,VALID,19.1028,VALID,61,VALID,0.424479,
2003-11-23, 00:32:00,VALID,919.917,VALID,0,VALID,100,VALID,-0.0339617,VALID,19.1028,VALID,90,VALID,0.583705,
2003-11-23, 00:33:00,VALID,919.901,VALID,0,VALID,100,VALID,-0.0169808,VALID,19.0995,VALID,65,VALID,0.581676,
2003-11-23, 00:34:00,VALID,919.879,VALID,0,VALID,100,VALID,-0.0169808,VALID,19.1053,VALID,61,VALID,0.745994,
2003-11-23, 00:35:00,VALID,919.865,VALID,0,VALID,100,VALID,-0.0169808,VALID,19.0894,VALID,53,VALID,0.621354,
2003-11-23, 00:36:00,VALID,919.858,VALID,0,VALID,100,VALID,0,VALID,19.0958,VALID,57,VALID,0.663881,
2003-11-23, 00:37:00,VALID,919.846,VALID,0,VALID,100,VALID,0,VALID,19.0958,VALID,43,VALID,0.530007,
2003-11-23, 00:38:00,VALID,919.825,VALID,0,VALID,100,VALID,-0.0169808,VALID,19.1028,VALID,76,VALID,0.553267,
2003-11-23, 00:39:00,VALID,919.815,VALID,0,VALID,100,VALID,-0.0339617,VALID,19.0923,VALID,68,VALID,0.498598,
2003-11-23, 00:40:00,VALID,919.808,VALID,0,VALID,100,VALID,-0.0169808,VALID,19.0898,VALID,64,VALID,0.399581,
2003-11-23, 00:41:00,VALID,919.8,VALID,0,VALID,100,VALID,-0.0169808,VALID,19.0827,VALID,85,VALID,0.456101,
2003-11-23, 00:42:00,VALID,919.789,VALID,0,VALID,100,VALID,-0.0169808,VALID,19.0931,VALID,79,VALID,0.557173,
2003-11-23, 00:43:00,VALID,919.78,VALID,0,VALID,100,VALID,-0.0849042,VALID,19.0894,VALID,71,VALID,0.441034,
2003-11-23, 00:44:00,VALID,919.771,VALID,0,VALID,100,VALID,-0.0509425,VALID,19.0928,VALID,63,VALID,0.468945,
2003-11-23, 00:45:00,VALID,919.758,VALID,0,VALID,100,VALID,-0.0339617,VALID,19.0896,VALID,33,VALID,0.265803,
2003-11-23, 00:46:00,VALID,919.752,VALID,0,VALID,100,VALID,-0.0679233,VALID,19.0931,VALID,23,VALID,0.106597,
2003-11-23, 00:47:00,VALID,919.754,VALID,0,VALID,100,VALID,-0.0169808,VALID,19.0998,VALID,23,VALID,0.245458,
2003-11-23, 00:48:00,VALID,919.729,VALID,0,VALID,100,VALID,-0.0339617,VALID,19.0928,VALID,23,VALID,0.028343,
2003-11-23, 00:49:00,VALID,919.738,VALID,0,VALID,100,VALID,-0.0169808,VALID,19.0859,VALID,23,VALID,0,
2003-11-23, 00:50:01,VALID,919.725,VALID,0,VALID,100,VALID,-0.0169808,VALID,19.103,VALID,23,VALID,0,
2003-11-23, 00:51:00,VALID,919.724,VALID,0,VALID,100,VALID,-0.0509425,VALID,19.0864,VALID,23,VALID,0,
2003-11-23, 00:52:01,VALID,919.705,VALID,0,VALID,100,VALID,-0.0509425,VALID,19.0794,VALID,73,VALID,0.0686678,
2003-11-23, 00:53:00,VALID,919.703,VALID,0,VALID,100,VALID,-0.0169808,VALID,19.0732,VALID,89,VALID,0,
2003-11-23, 00:54:00,VALID,919.689,VALID,0,VALID,100,VALID,-0.0169808,VALID,19.0697,VALID,89,VALID,0,
2003-11-23, 00:55:00,VALID,919.692,VALID,0,VALID,100,VALID,0,VALID,19.0797,VALID,89,VALID,0,
2003-11-23, 00:56:00,VALID,919.669,VALID,0,VALID,100,VALID,-0.0169808,VALID,19.076,VALID,89,VALID,0,
2003-11-23, 00:57:00,VALID,919.653,VALID,0,VALID,100,VALID,-0.0509425,VALID,19.0829,VALID,89,VALID,0,
2003-11-23, 00:58:00,VALID,919.656,VALID,0,VALID,100,VALID,0,VALID,19.0829,VALID,89,VALID,0,
2003-11-23, 00:59:00,VALID,919.643,VALID,0,VALID,100,VALID,-0.0169808,VALID,19.0894,VALID,89,VALID,0,
2003-11-23, 01:00:00,VALID,919.626,VALID,0,VALID,100,VALID,-0.0509425,VALID,19.1025,VALID,89,VALID,0,
2003-11-23, 01:01:00,VALID,919.604,VALID,0,VALID,100,VALID,0,VALID,19.0958,VALID,89,VALID,0.109575,
2003-11-23, 01:02:00,VALID,919.601,VALID,0,VALID,100,VALID,-0.0169808,VALID,19.0861,VALID,89,VALID,0.125533,
2003-11-23, 01:03:00,VALID,919.591,VALID,0,VALID,100,VALID,0,VALID,19.0697,VALID,89,VALID,0.192073,
2003-11-23, 01:04:00,VALID,919.576,VALID,0,VALID,100,VALID,0,VALID,19.0598,VALID,89,VALID,0.0901989,
2003-11-23, 01:05:00,VALID,919.58,VALID,0,VALID,100,VALID,-0.0339617,VALID,19.0737,VALID,89,VALID,0.28853,
2003-11-23, 01:06:00,VALID,919.562,VALID,0,VALID,100,VALID,-0.0849042,VALID,19.0575,VALID,89,VALID,0.204427,
2003-11-23, 01:07:00,VALID,919.563,VALID,0,VALID,100,VALID,-0.0679233,VALID,19.0543,VALID,89,VALID,0.113542,
2003-11-23, 01:08:00,VALID,919.547,VALID,0,VALID,100,VALID,-0.0509425,VALID,19.0476,VALID,89,VALID,0.348895,
2003-11-23, 01:09:00,VALID,919.54,VALID,0,VALID,100,VALID,-0.0679233,VALID,19.0578,VALID,55,VALID,0.46968,
2003-11-23, 01:10:00,VALID,919.532,VALID,0,VALID,100,VALID,-0.0509425,VALID,19.0441,VALID,52,VALID,0.335392,
2003-11-23, 01:11:00,VALID,919.529,VALID,0,VALID,100,VALID,-0.0509425,VALID,19.0642,VALID,58,VALID,0.126524,
2003-11-23, 01:12:00,VALID,919.51,VALID,0,VALID,100,VALID,-0.0509425,VALID,19.061,VALID,58,VALID,0.315407,
2003-11-23, 01:13:00,VALID,919.498,VALID,0,VALID,100,VALID,-0.0339617,VALID,19.0476,VALID,58,VALID,0.369449,
2003-11-23, 01:14:00,VALID,919.465,VALID,0,VALID,100,VALID,-0.0509425,VALID,19.0342,VALID,58,VALID,0.216025,
2003-11-23, 01:15:00,VALID,919.449,VALID,0,VALID,100,VALID,-0.0509425,VALID,19.0446,VALID,80,VALID,0.348292,
2003-11-23, 01:16:00,VALID,919.421,VALID,0,VALID,100,VALID,-0.0339617,VALID,19.0474,VALID,85,VALID,0.423399,
2003-11-23, 01:17:00,VALID,919.4,VALID,0,VALID,100,VALID,-0.0509425,VALID,19.0446,VALID,98,VALID,0.492378,
2003-11-23, 01:18:00,VALID,919.371,VALID,0,VALID,100,VALID,-0.0339617,VALID,19.0248,VALID,100,VALID,0.529204,
2003-11-23, 01:19:00,VALID,919.352,VALID,0,VALID,100,VALID,-0.0339617,VALID,19.0218,VALID,79,VALID,0.721475,
2003-11-23, 01:20:00,VALID,919.332,VALID,0,VALID,100,VALID,-0.0849042,VALID,19.0223,VALID,74,VALID,0.672585,
2003-11-23, 01:21:00,VALID,919.321,VALID,0,VALID,100,VALID,0.0339617,VALID,19.0236,VALID,81,VALID,0.712209,
2003-11-23, 01:22:00,VALID,919.304,VALID,0,VALID,100,VALID,0.0339617,VALID,19.0201,VALID,59,VALID,0.516513,
2003-11-23, 01:23:00,VALID,919.304,VALID,0,VALID,100,VALID,0.0679233,VALID,19.027,VALID,78,VALID,0.728609,
2003-11-23, 01:24:00,VALID,919.284,VALID,0,VALID,100,VALID,0.0509425,VALID,19.0273,VALID,83,VALID,0.649826,
2003-11-23, 01:25:00,VALID,919.277,VALID,0,VALID,100,VALID,0.0339617,VALID,19.037,VALID,116,VALID,0.537919,
2003-11-23, 01:26:00,VALID,919.26,VALID,0,VALID,100,VALID,0.0339617,VALID,19.0471,VALID,128,VALID,0.734189,
2003-11-23, 01:27:00,VALID,919.244,VALID,0,VALID,100,VALID,0,VALID,19.0429,VALID,130,VALID,0.736458,
2003-11-23, 01:28:00,VALID,919.229,VALID,0,VALID,100,VALID,0.0169808,VALID,19.0598,VALID,128,VALID,0.408537,
2003-11-23, 01:29:00,VALID,919.215,VALID,0,VALID,100,VALID,0.0169808,VALID,19.0822,VALID,155,VALID,0.626953,
2003-11-23, 01:30:00,VALID,919.197,VALID,0,VALID,100,VALID,0.0339617,VALID,19.0921,VALID,144,VALID,0.742188,
2003-11-23, 01:31:00,VALID,919.191,VALID,0,VALID,100,VALID,0.0679233,VALID,19.0854,VALID,174,VALID,0.449041,
2003-11-23, 01:32:00,VALID,919.168,VALID,0,VALID,100,VALID,0.0339617,VALID,19.0849,VALID,123,VALID,0.4,
2003-11-23, 01:33:00,VALID,919.139,VALID,0,VALID,100,VALID,0.0849042,VALID,19.0787,VALID,145,VALID,0.835366,
2003-11-23, 01:34:00,VALID,919.123,VALID,0,VALID,100,VALID,0.0339617,VALID,19.0757,VALID,137,VALID,0.80069,
2003-11-23, 01:35:00,VALID,919.105,VALID,0,VALID,100,VALID,0.0509425,VALID,19.0655,VALID,118,VALID,0.914063,
2003-11-23, 01:36:00,VALID,919.083,VALID,0,VALID,100,VALID,-0.0679233,VALID,19.0538,VALID,128,VALID,0.515807,
2003-11-23, 01:37:00,VALID,919.083,VALID,0,VALID,100,VALID,-0.0509425,VALID,19.0546,VALID,110,VALID,1.05796,
2003-11-23, 01:38:00,VALID,919.069,VALID,0,VALID,100,VALID,-0.0509425,VALID,19.0453,VALID,103,VALID,0.907203,
2003-11-23, 01:39:00,VALID,919.054,VALID,0.2,VALID,100,VALID,-0.0849042,VALID,19.0416,VALID,112,VALID,0.907848,
2003-11-23, 01:40:00,VALID,919.057,VALID,0,VALID,100,VALID,-0.0679233,VALID,19.0317,VALID,103,VALID,0.844295,
2003-11-23, 01:41:00,VALID,919.049,VALID,0,VALID,100,VALID,-0.0849042,VALID,19.0287,VALID,109,VALID,0.551042,
2003-11-23, 01:42:00,VALID,919.045,VALID,0,VALID,100,VALID,-0.0679233,VALID,19.0386,VALID,95,VALID,0.744731,
2003-11-23, 01:43:00,VALID,919.027,VALID,0,VALID,100,VALID,-0.0509425,VALID,19.0319,VALID,63,VALID,0.335938,
2003-11-23, 01:44:00,VALID,918.999,VALID,0,VALID,100,VALID,-0.0679233,VALID,19.0255,VALID,116,VALID,0.741642,
2003-11-23, 01:45:00,VALID,918.992,VALID,0,VALID,100,VALID,-0.0509425,VALID,19.0253,VALID,133,VALID,0.998397,
2003-11-23, 01:46:00,VALID,918.954,VALID,0,VALID,100,VALID,-0.0509425,VALID,19.025,VALID,129,VALID,0.875558,
2003-11-23, 01:47:00,VALID,918.926,VALID,0,VALID,100,VALID,-0.0169808,VALID,19.0215,VALID,121,VALID,0.91369,
2003-11-23, 01:48:00,VALID,918.904,VALID,0,VALID,100,VALID,-0.0679233,VALID,19.0153,VALID,125,VALID,0.826349,
2003-11-23, 01:49:00,VALID,918.88,VALID,0,VALID,100,VALID,-0.0339617,VALID,19.0253,VALID,119,VALID,1.0585,
2003-11-23, 01:50:00,VALID,918.855,VALID,0,VALID,100,VALID,-0.0169808,VALID,19.0282,VALID,133,VALID,1.17063,
2003-11-23, 01:51:00,VALID,918.838,VALID,0,VALID,100,VALID,-0.0509425,VALID,19.0215,VALID,132,VALID,0.927871,
2003-11-23, 01:52:00,VALID,918.819,VALID,0,VALID,100,VALID,-0.0339617,VALID,19.0245,VALID,143,VALID,1.31285,
2003-11-23, 01:53:00,VALID,918.791,VALID,0,VALID,100,VALID,-0.101885,VALID,19.0449,VALID,138,VALID,0.878906,
2003-11-23, 01:54:00,VALID,918.773,VALID,0,VALID,100,VALID,-0.0679233,VALID,19.0414,VALID,138,VALID,1.62147,
2003-11-23, 01:55:00,VALID,918.753,VALID,0,VALID,100,VALID,-0.0509425,VALID,19.0511,VALID,141,VALID,1.05664,
2003-11-23, 01:56:00,VALID,918.731,VALID,0,VALID,100,VALID,-0.0679233,VALID,19.0476,VALID,135,VALID,1.12305,
2003-11-23, 01:57:00,VALID,918.729,VALID,0,VALID,100,VALID,-0.0339617,VALID,19.0608,VALID,136,VALID,1.3893,
2003-11-23, 01:58:00,VALID,918.699,VALID,0,VALID,100,VALID,-0.0509425,VALID,19.0511,VALID,129,VALID,1.30433,
2003-11-23, 01:59:00,VALID,918.69,VALID,0,VALID,100,VALID,-0.0679233,VALID,19.0575,VALID,119,VALID,0.928385,
2003-11-23, 02:00:00,VALID,918.681,VALID,0,VALID,100,VALID,-0.0509425,VALID,19.0508,VALID,124,VALID,1.0122,
2003-11-23, 02:01:00,VALID,918.645,VALID,0,VALID,100,VALID,-0.0509425,VALID,19.0409,VALID,124,VALID,1.22675,
2003-11-23, 02:02:00,VALID,918.635,VALID,0,VALID,100,VALID,-0.0679233,VALID,19.0347,VALID,136,VALID,1.10476,
2003-11-23, 02:03:00,VALID,918.623,VALID,0,VALID,100,VALID,-0.0849042,VALID,19.0513,VALID,123,VALID,1.26882,
2003-11-23, 02:04:00,VALID,918.613,VALID,0,VALID,100,VALID,-0.0509425,VALID,19.0511,VALID,129,VALID,0.973242,
2003-11-23, 02:05:00,VALID,918.609,VALID,0,VALID,100,VALID,-0.0509425,VALID,19.0608,VALID,130,VALID,1.01699,
2003-11-23, 02:06:00,VALID,918.587,VALID,0,VALID,100,VALID,0,VALID,19.0506,VALID,134,VALID,1.225,
2003-11-23, 02:07:00,VALID,918.577,VALID,0,VALID,100,VALID,-0.0169808,VALID,19.0504,VALID,135,VALID,1.1637,
2003-11-23, 02:08:00,VALID,918.565,VALID,0,VALID,100,VALID,0,VALID,19.0638,VALID,138,VALID,1.33535,
2003-11-23, 02:09:00,VALID,918.55,VALID,0,VALID,100,VALID,0,VALID,19.0735,VALID,127,VALID,1.3038,
2003-11-23, 02:10:00,VALID,918.537,VALID,0,VALID,100,VALID,0,VALID,19.0663,VALID,133,VALID,1.43102,
2003-11-23, 02:11:00,VALID,918.527,VALID,0,VALID,100,VALID,-0.0169808,VALID,19.0695,VALID,128,VALID,1.41642,
2003-11-23, 02:12:00,VALID,918.512,VALID,0,VALID,100,VALID,0,VALID,19.0859,VALID,130,VALID,1.38554,
2003-11-23, 02:13:00,VALID,918.506,VALID,0,VALID,100,VALID,0.0169808,VALID,19.109,VALID,126,VALID,1.13354,
2003-11-23, 02:14:00,VALID,918.5,VALID,0,VALID,100,VALID,0,VALID,19.1154,VALID,131,VALID,1.50093,
2003-11-23, 02:15:00,VALID,918.484,VALID,0,VALID,100,VALID,0,VALID,19.112,VALID,129,VALID,1.41424,
2003-11-23, 02:16:00,VALID,918.473,VALID,0,VALID,100,VALID,0,VALID,19.1154,VALID,123,VALID,1.59623,
2003-11-23, 02:17:00,VALID,918.468,VALID,0,VALID,100,VALID,-0.0169808,VALID,19.1189,VALID,116,VALID,1.29669,
2003-11-23, 02:18:00,VALID,918.45,VALID,0,VALID,100,VALID,0,VALID,19.1184,VALID,101,VALID,1.15244,
2003-11-23, 02:19:00,VALID,918.438,VALID,0,VALID,100,VALID,0,VALID,19.1321,VALID,95,VALID,0.572798,
2003-11-23, 02:20:00,VALID,918.433,VALID,0,VALID,100,VALID,0,VALID,19.1254,VALID,88,VALID,0.741211,
2003-11-23, 02:21:00,VALID,918.42,VALID,0,VALID,100,VALID,0,VALID,19.1219,VALID,122,VALID,1.08017,
2003-11-23, 02:22:00,VALID,918.409,VALID,0,VALID,100,VALID,-0.0169808,VALID,19.1182,VALID,139,VALID,1.25558,
2003-11-23, 02:23:00,VALID,918.411,VALID,0,VALID,100,VALID,0,VALID,19.1149,VALID,125,VALID,1.33232,
2003-11-23, 02:24:00,VALID,918.405,VALID,0,VALID,100,VALID,0,VALID,19.1184,VALID,131,VALID,1.07626,
2003-11-23, 02:25:00,VALID,918.388,VALID,0,VALID,100,VALID,-0.0509425,VALID,19.1221,VALID,131,VALID,1.21609,
2003-11-23, 02:26:00,VALID,918.37,VALID,0,VALID,100,VALID,-0.0509425,VALID,19.1092,VALID,149,VALID,0.80451,
2003-11-23, 02:27:00,VALID,918.352,VALID,0,VALID,100,VALID,0,VALID,19.1055,VALID,146,VALID,1.08368,
2003-11-23, 02:28:00,VALID,918.343,VALID,0,VALID,100,VALID,-0.0169808,VALID,19.0998,VALID,159,VALID,0.993331,
2003-11-23, 02:29:00,VALID,918.315,VALID,0,VALID,100,VALID,-0.0339617,VALID,19.1095,VALID,153,VALID,1.08817,
2003-11-23, 02:30:00,VALID,918.314,VALID,0,VALID,100,VALID,0,VALID,19.1122,VALID,146,VALID,0.982244,
2003-11-23, 02:31:00,VALID,918.298,VALID,0,VALID,100,VALID,0,VALID,19.1159,VALID,138,VALID,0.735283,
2003-11-23, 02:32:00,VALID,918.281,VALID,0,VALID,100,VALID,-0.0169808,VALID,19.099,VALID,170,VALID,0.636914,
2003-11-23, 02:33:00,VALID,918.273,VALID,0,VALID,100,VALID,-0.0339617,VALID,19.1062,VALID,184,VALID,0.503811,
2003-11-23, 02:34:00,VALID,918.254,VALID,0,VALID,100,VALID,-0.0169808,VALID,19.0995,VALID,154,VALID,0.565407,
2003-11-23, 02:35:00,VALID,918.227,VALID,0,VALID,100,VALID,-0.0169808,VALID,19.0963,VALID,180,VALID,0.877668,
2003-11-23, 02:36:00,VALID,918.207,VALID,0,VALID,100,VALID,-0.0339617,VALID,19.0866,VALID,157,VALID,1.10213,
2003-11-23, 02:37:00,VALID,918.187,VALID,0,VALID,100,VALID,0,VALID,19.0734,VALID,140,VALID,1.50743,
2003-11-23, 02:38:00,VALID,918.165,VALID,0,VALID,100,VALID,-0.0169808,VALID,19.07,VALID,161,VALID,0.909157,
2003-11-23, 02:39:00,VALID,918.136,VALID,0,VALID,100,VALID,0,VALID,19.0834,VALID,115,VALID,0.479469,
2003-11-23, 02:40:00,VALID,918.13,VALID,0,VALID,100,VALID,-0.0169808,VALID,19.0732,VALID,169,VALID,0.788699,
2003-11-23, 02:41:00,VALID,918.119,VALID,0,VALID,100,VALID,-0.0339617,VALID,19.073,VALID,151,VALID,0.38548,
2003-11-23, 02:42:00,VALID,918.119,VALID,0,VALID,100,VALID,0,VALID,19.0734,VALID,155,VALID,1.15566,
2003-11-23, 02:43:00,VALID,918.103,VALID,0,VALID,100,VALID,0,VALID,19.0668,VALID,172,VALID,0.521875,
2003-11-23, 02:44:00,VALID,918.104,VALID,0,VALID,100,VALID,0,VALID,19.0573,VALID,157,VALID,0.652249,
2003-11-23, 02:45:00,VALID,918.087,VALID,0,VALID,100,VALID,0,VALID,19.0573,VALID,168,VALID,0.699219,
2003-11-23, 02:46:00,VALID,918.088,VALID,0,VALID,100,VALID,0,VALID,19.0446,VALID,188,VALID,0.529652,
2003-11-23, 02:47:00,VALID,918.086,VALID,0,VALID,100,VALID,-0.0509425,VALID,19.0379,VALID,164,VALID,0.687682,
2003-11-23, 02:48:00,VALID,918.091,VALID,0,VALID,100,VALID,-0.0169808,VALID,19.0379,VALID,152,VALID,0.704613,
2003-11-23, 02:49:00,VALID,918.08,VALID,0,VALID,100,VALID,-0.0169808,VALID,19.0275,VALID,149,VALID,0.423399,
2003-11-23, 02:50:00,VALID,918.066,VALID,0,VALID,100,VALID,0,VALID,19.025,VALID,170,VALID,0.566211,
2003-11-23, 02:51:00,VALID,918.063,VALID,0,VALID,100,VALID,-0.0169808,VALID,19.0183,VALID,91,VALID,0.43532,
2003-11-23, 02:52:00,VALID,918.058,VALID,0,VALID,100,VALID,-0.0169808,VALID,19.0315,VALID,174,VALID,0.40516,
2003-11-23, 02:53:00,VALID,918.061,VALID,0,VALID,100,VALID,-0.0339617,VALID,19.0178,VALID,180,VALID,0.579883,
2003-11-23, 02:54:00,VALID,918.039,VALID,0,VALID,100,VALID,0,VALID,19.0287,VALID,163,VALID,0.983984,
2003-11-23, 02:55:00,VALID,918.029,VALID,0,VALID,100,VALID,-0.0339617,VALID,19.029,VALID,183,VALID,0.424479,
2003-11-23, 02:56:00,VALID,918.025,VALID,0,VALID,100,VALID,0,VALID,19.0252,VALID,152,VALID,0.649414,
2003-11-23, 02:57:00,VALID,918.01,VALID,0,VALID,100,VALID,-0.0169808,VALID,19.0052,VALID,165,VALID,0.646257,
2003-11-23, 02:58:00,VALID,917.995,VALID,0,VALID,100,VALID,-0.0169808,VALID,19.0089,VALID,142,VALID,0.876674,
2003-11-23, 02:59:00,VALID,917.989,VALID,0,VALID,100,VALID,-0.0169808,VALID,19.019,VALID,151,VALID,0.546131,
2003-11-23, 03:00:00,VALID,917.971,VALID,0,VALID,100,VALID,-0.0169808,VALID,19.0026,VALID,141,VALID,1.27949,
2003-11-23, 03:01:00,VALID,917.957,VALID,0,VALID,100,VALID,0,VALID,18.9994,VALID,141,VALID,1.35338,
2003-11-23, 03:02:00,VALID,917.945,VALID,0,VALID,100,VALID,0,VALID,18.9957,VALID,156,VALID,0.895041,
2003-11-23, 03:03:00,VALID,917.939,VALID,0,VALID,100,VALID,-0.0509425,VALID,18.99,VALID,153,VALID,1.78242,
2003-11-23, 03:04:00,VALID,917.932,VALID,0,VALID,100,VALID,0,VALID,18.9798,VALID,163,VALID,1.67206,
2003-11-23, 03:05:00,VALID,917.922,VALID,0,VALID,100,VALID,-0.0169808,VALID,18.9833,VALID,148,VALID,1.59583,
2003-11-23, 03:06:00,VALID,917.913,VALID,0,VALID,100,VALID,-0.0339617,VALID,18.9863,VALID,152,VALID,1.40513,
2003-11-23, 03:07:00,VALID,917.903,VALID,0,VALID,100,VALID,-0.0339617,VALID,18.9833,VALID,164,VALID,0.976926,
2003-11-23, 03:08:00,VALID,917.914,VALID,0,VALID,100,VALID,-0.0169808,VALID,18.986,VALID,155,VALID,1.23177,
2003-11-23, 03:09:00,VALID,917.905,VALID,0,VALID,100,VALID,-0.0679233,VALID,18.983,VALID,148,VALID,1.37386,
2003-11-23, 03:10:00,VALID,917.907,VALID,0,VALID,100,VALID,-0.0679233,VALID,18.9837,VALID,165,VALID,0.884115,
2003-11-23, 03:11:01,VALID,917.909,VALID,0,VALID,100,VALID,-0.0169808,VALID,18.9674,VALID,138,VALID,1.61639,
2003-11-23, 03:12:00,VALID,917.902,VALID,0,VALID,100,VALID,-0.0169808,VALID,18.9706,VALID,145,VALID,1.85176,
2003-11-23, 03:13:00,VALID,917.901,VALID,0,VALID,100,VALID,-0.0849042,VALID,18.9641,VALID,141,VALID,1.08727,
2003-11-23, 03:14:00,VALID,917.903,VALID,0,VALID,100,VALID,-0.0169808,VALID,18.9609,VALID,136,VALID,1.33743,
2003-11-23, 03:15:00,VALID,917.887,VALID,0,VALID,100,VALID,0,VALID,18.9478,VALID,142,VALID,1.23884,
2003-11-23, 03:16:00,VALID,917.87,VALID,0,VALID,100,VALID,-0.0679233,VALID,18.9512,VALID,145,VALID,1.75242,
2003-11-23, 03:17:00,VALID,917.874,VALID,0,VALID,100,VALID,-0.0169808,VALID,18.9537,VALID,139,VALID,1.47529,
2003-11-23, 03:18:00,VALID,917.858,VALID,0,VALID,100,VALID,-0.0169808,VALID,18.9413,VALID,143,VALID,1.43241,
2003-11-23, 03:19:00,VALID,917.835,VALID,0,VALID,100,VALID,-0.0169808,VALID,18.9443,VALID,150,VALID,1.75242,
2003-11-23, 03:20:01,VALID,917.83,VALID,0,VALID,100,VALID,0,VALID,18.954,VALID,181,VALID,0.603819,
2003-11-23, 03:21:01,VALID,917.805,VALID,0,VALID,100,VALID,-0.0169808,VALID,18.954,VALID,147,VALID,1.41388,
2003-11-23, 03:22:01,VALID,917.807,VALID,0,VALID,100,VALID,-0.0169808,VALID,18.9577,VALID,167,VALID,1.00744,
2003-11-23, 03:23:00,VALID,917.796,VALID,0,VALID,100,VALID,-0.0339617,VALID,18.9512,VALID,246,VALID,0.639535,
2003-11-23, 03:24:00,VALID,917.792,VALID,0,VALID,100,VALID,0,VALID,18.944,VALID,152,VALID,1.10211,
2003-11-23, 03:25:01,VALID,917.783,VALID,0,VALID,100,VALID,-0.0339617,VALID,18.9512,VALID,177,VALID,1.21989,
2003-11-23, 03:26:01,VALID,917.779,VALID,0,VALID,100,VALID,-0.0169808,VALID,18.9448,VALID,161,VALID,1.07146,
2003-11-23, 03:27:00,VALID,917.78,VALID,0,VALID,100,VALID,-0.0169808,VALID,18.9378,VALID,156,VALID,1.01672,
2003-11-23, 03:28:00,VALID,917.771,VALID,0,VALID,100,VALID,-0.0169808,VALID,18.9411,VALID,168,VALID,0.6875,
2003-11-23, 03:29:01,VALID,917.778,VALID,0,VALID,100,VALID,-0.0169808,VALID,18.9286,VALID,175,VALID,0.852896,
2003-11-23, 03:30:00,VALID,917.771,VALID,0,VALID,100,VALID,0,VALID,18.9251,VALID,167,VALID,0.602148,
2003-11-23, 03:31:00,VALID,917.755,VALID,0,VALID,100,VALID,-0.0169808,VALID,18.9125,VALID,149,VALID,0.577592,
2003-11-23, 03:32:00,VALID,917.737,VALID,0,VALID,100,VALID,-0.0339617,VALID,18.8961,VALID,101,VALID,0.114258,
2003-11-23, 03:33:00,VALID,917.737,VALID,0,VALID,100,VALID,0,VALID,18.8767,VALID,104,VALID,0.0918445,
2003-11-23, 03:34:00,VALID,917.732,VALID,0,VALID,100,VALID,-0.0339617,VALID,18.8509,VALID,106,VALID,0,
2003-11-23, 03:35:01,VALID,917.726,VALID,0,VALID,100,VALID,-0.0509425,VALID,18.8449,VALID,104,VALID,0,
2003-11-23, 03:36:01,VALID,917.716,VALID,0,VALID,100,VALID,-0.0679233,VALID,18.832,VALID,35,VALID,0.259766,
2003-11-23, 03:37:01,VALID,917.708,VALID,0,VALID,100,VALID,0,VALID,18.8156,VALID,33,VALID,0.405208,
2003-11-23, 03:38:00,VALID,917.697,VALID,0,VALID,100,VALID,-0.0339617,VALID,18.7928,VALID,31,VALID,0.345703,
2003-11-23, 03:39:00,VALID,917.688,VALID,0,VALID,100,VALID,-0.0169808,VALID,18.7731,VALID,31,VALID,0.19494,
2003-11-23, 03:40:01,VALID,917.683,VALID,0,VALID,100,VALID,-0.0509425,VALID,18.7835,VALID,35,VALID,0.278706,
2003-11-23, 03:41:00,VALID,917.683,VALID,0,VALID,100,VALID,-0.0679233,VALID,18.7932,VALID,62,VALID,0.329215,
2003-11-23, 03:42:01,VALID,917.673,VALID,0,VALID,100,VALID,-0.0509425,VALID,18.793,VALID,79,VALID,0.518483,
2003-11-23, 03:43:01,VALID,917.669,VALID,0,VALID,100,VALID,-0.0849042,VALID,18.7999,VALID,50,VALID,0.431556,